Simultaneous Nadir Overpasses (SNOs) Predictions

Prediction of SNOs between AQUA and NOAA-19 Satellite Orbit:

Table of predicted SNOs for the next 14.0 days since TLE Epoch: 10/29/2016
Index Date (AQUA) Time (AQUA) Lat,Lon (AQUA) SZA (AQUA ) Date (NOAA-19) Time (NOAA-19) Lat,Lon (NOAA-19) SZA (NOAA-19 ) Distance(km) Time Diff (sec)
1 10/31/2016 12:03:05 80.93, -40.98 96.91 10/31/2016 12:03:27 80.93, -41.10 96.92 2.22 22
2 11/02/2016 16:47:23 80.93,-112.09 97.61 11/02/2016 16:46:25 80.94,-112.10 97.64 0.93 58
3 11/02/2016 17:36:50 -80.95, 55.32 82.35 11/02/2016 17:37:20 -80.93, 55.40 82.38 1.99 30
4 11/04/2016 22:21:08 -80.95, -15.82 81.67 11/04/2016 22:20:18 -80.94, -15.65 81.67 3.09 50
5 11/04/2016 23:10:34 80.93, 152.05 98.32 11/04/2016 23:11:23 80.93, 152.05 98.30 0.29 49
6 11/07/2016 03:54:52 80.94, 80.82 98.99 11/07/2016 03:54:21 80.94, 80.97 98.99 2.61 31
7 11/07/2016 04:44:18 -80.93,-111.35 81.03 11/07/2016 04:45:15 -80.93,-111.17 81.07 3.23 57
8 11/09/2016 09:28:35 -80.94, 177.41 80.37 11/09/2016 09:28:13 -80.94, 177.37 80.36 0.72 22




NCC Satellite Simultaneous Nadir Overpasses (SNOs) Prediction Service
